Location: Sweetwater (historical)
(38.4624°N, 119.1749°W)
Time: 12:28:59
(UTC+00:00)

MSX - Pass Details

Date: 13 August 2020
Orbit: 896 x 905 km, 98.8° (Epoch: 21 September)

Event Time Altitude Azimuth Distance (km) Brightness Sun altitude
Rises 11:58:44 0° 6° (N) 3,531 7.5 -13.4°
Reaches altitude 10° 12:01:13 10° 1° (N) 2,588 6.7 -13.0°
Maximum altitude 12:06:42 47° 290° (WNW) 1,185 4.2 -12.1°
Enters shadow 12:11:47 12° 219° (SW) 2,437 5.5 -11.2°
